Kahului, HI

3:59 AM HST on November 23, 2017 (GMT -1000)
Kahului

Weather History for PHOG - February, 2014

Change the Weather History Date:

Wednesday, February 5, 2014

  Actual Average Record
Temperature  
Mean Temperature 75 °F 72 °F  
Max Temperature 84 °F 81 °F 87 °F (1985)
Min Temperature 66 °F 63 °F 50 °F (1973)
Degree Days  
Heating Degree Days 0 0  
Month to date heating degree days 0 0  
Since 1 July heating degree days 0 0  
Cooling Degree Days 10 7  
Month to date cooling degree days 51 35  
Year to date cooling degree days 286 252  
Growing Degree Days 24 (Base 50)    
Moisture  
Dew Point 69 °F    
Average Humidity 78    
Maximum Humidity 100    
Minimum Humidity 55    
Precipitation  
Precipitation 0.02 in 0.07 in 1.00 in (1979)
Month to date precipitation 1.43 0.38  
Year to date precipitation 5.48 3.25  
Snow  
Snow 0.00 in - - ()
Month to date snowfall 0.0  
Since 1 July snowfall 0.0  
Snow Depth 0.00 in    
Sea Level Pressure  
Sea Level Pressure 29.92 in    
Wind  
Wind Speed 9 mph (SSW)    
Max Wind Speed 23 mph    
Max Gust Speed 33 mph    
Visibility 10 miles    
Events Rain    
T = Trace of Precipitation, MM = Missing Value Source: NWS Daily Summary

Daily Weather History Graph

Daily Weather History Graph

Search for Another Location

Airport or City:

Trip Planner

Search our weather history database for the weather conditions in past years. The results will help you decide how hot, cold, wet, or windy it might be!

Date:

Astronomy

Feb. 05, 2014 Rise Set
Actual Time 7:00 AM HST 6:18 PM HST
Civil Twilight 6:37 AM HST 6:41 PM HST
Nautical Twilight 6:11 AM HST 7:08 PM HST
Astronomical Twilight 5:45 AM HST 7:34 PM HST
Moon 11:17 AM HST (2/5) No Moon Set
Length of Visible Light 12h 04m
Length of Day
11h 18m
Waxing Crescent, 41% of the Moon is Illuminated
Feb 5
Waxing Crescent
Feb 6
First Quarter
Feb 14
Full
Feb 22
Last Quarter
Feb 28
New

Hourly Weather History & Observations

Time (HST) Temp. Heat Index Dew Point Humidity Pressure Visibility Wind Dir Wind Speed Gust Speed Precip Events Conditions
12:54 AM 69.1 °F - 66.9 °F 93% 29.93 in 10.0 mi West 3.5 mph - N/A   Clear
1:54 AM 68.0 °F - 66.0 °F 93% 29.91 in 10.0 mi South 4.6 mph - N/A   Partly Cloudy
2:54 AM 71.1 °F - 69.1 °F 93% 29.89 in 10.0 mi SSE 3.5 mph - N/A   Clear
3:54 AM 70.0 °F - 66.9 °F 90% 29.88 in 10.0 mi SE 4.6 mph - N/A   Clear
4:54 AM 68.0 °F - 66.0 °F 93% 29.89 in 10.0 mi South 3.5 mph - N/A   Clear
5:54 AM 66.9 °F - 66.0 °F 97% 29.90 in 10.0 mi South 3.5 mph - N/A   Clear
6:54 AM 66.0 °F - 64.9 °F 96% 29.92 in 10.0 mi Calm Calm - N/A   Clear
7:54 AM 68.0 °F - 66.0 °F 93% 29.94 in 10.0 mi SSE 5.8 mph - N/A   Clear
8:54 AM 73.0 °F - 70.0 °F 90% 29.95 in 10.0 mi South 3.5 mph - N/A   Clear
9:54 AM 78.1 °F - 70.0 °F 76% 29.96 in 10.0 mi SSW 8.1 mph - N/A   Scattered Clouds
10:54 AM 80.1 °F 82.7 °F 68.0 °F 67% 29.94 in 10.0 mi South 11.5 mph - N/A   Scattered Clouds
11:54 AM 82.0 °F 85.5 °F 69.1 °F 65% 29.91 in 10.0 mi SSW 16.1 mph - N/A   Scattered Clouds
12:54 PM 82.9 °F 84.6 °F 64.9 °F 54% 29.87 in 10.0 mi SW 17.3 mph 33.4 mph N/A   Partly Cloudy
1:54 PM 82.9 °F 85.4 °F 66.9 °F 58% 29.86 in 10.0 mi SSW 19.6 mph 26.5 mph N/A   Scattered Clouds
2:54 PM 81.0 °F 84.1 °F 69.1 °F 67% 29.86 in 10.0 mi SSW 19.6 mph 25.3 mph N/A   Scattered Clouds
3:54 PM 80.1 °F 82.9 °F 69.1 °F 69% 29.88 in 10.0 mi SSW 15.0 mph - N/A   Mostly Cloudy
4:54 PM 79.0 °F - 70.0 °F 74% 29.90 in 10.0 mi SSW 13.8 mph - N/A   Partly Cloudy
5:54 PM 77.0 °F - 71.1 °F 82% 29.91 in 10.0 mi SW 12.7 mph - N/A   Scattered Clouds
6:54 PM 75.9 °F - 71.1 °F 85% 29.93 in 10.0 mi WSW 12.7 mph - N/A   Scattered Clouds
7:54 PM 75.0 °F - 72.0 °F 90% 29.96 in 10.0 mi SW 6.9 mph - N/A   Partly Cloudy
8:54 PM 75.0 °F - 71.1 °F 87% 29.99 in 10.0 mi SSW 5.8 mph - N/A   Mostly Cloudy
9:18 PM 75.2 °F - 71.6 °F 89% 29.97 in 8.0 mi SW 6.9 mph - 0.00 in Rain Rain
9:54 PM 75.0 °F - 73.0 °F 94% 29.98 in 10.0 mi South 5.8 mph - 0.02 in   Overcast
10:54 PM 73.0 °F - 72.0 °F 96% 29.99 in 10.0 mi SE 4.6 mph - N/A   Partly Cloudy
11:54 PM 73.9 °F - 73.0 °F 97% 29.98 in 10.0 mi South 5.8 mph - N/A   Scattered Clouds